OE7MFI-13 Weather Reports


Display with metric or nautical units.
time (UTC)temp
F
wind
direction
speed
MPH
gust
MPH
rain 1hr
in
rain 24hr
in
rain mn
in
humidity
%
barometer
mb
20260502130353 77 22 0.0 0.0 0.00 0.00 0.00 22
20260502123405 76 0.0 0.0 0.00 0.00 0.00 24
20260502122353 76 328 0.0 0.0 0.00 0.00 0.00 25
20260502121345 75 349 0.0 0.0 0.00 0.00 0.00 26
20260502120353 75 170 0.0 0.0 0.00 0.00 0.00 26
20260502115345 75 55 0.0 0.0 0.00 0.00 0.00 26
20260502114412 75 307 0.0 0.0 0.00 0.00 0.00 25
20260502113345 75 1 0.0 0.0 0.00 0.00 0.00 25
20260502112353 74 34 0.0 0.0 0.00 0.00 0.00 28
20260502111347 74 1 0.0 0.0 0.00 0.00 0.00 28
20260502110355 74 337 0.0 0.0 0.00 0.00 0.00 28
20260502105405 73 307 0.0 0.0 0.00 0.00 0.00 28
20260502104353 73 339 0.0 0.0 0.00 0.00 0.00 30
20260502103345 73 0.0 0.0 0.00 0.00 0.00 30
20260502102353 72 20 0.0 0.0 0.00 0.00 0.00 29
20260502101345 71 352 0.0 1.0 0.00 0.00 0.00 28
20260502100355 70 30 0.0 0.0 0.00 0.00 0.00 30
20260502091345 67 84 0.0 0.0 0.00 0.00 0.00 40
20260502090353 66 13 0.0 0.0 0.00 0.00 0.00 41
20260502071346 54 334 0.0 0.0 0.00 0.00 0.00 62
20260502070353 52 0.0 0.0 0.00 0.00 0.00 70
20260502065345 49 236 0.0 0.0 0.00 0.00 0.00 73
20260502064353 47 15 0.0 0.0 0.00 0.00 0.00 75
20260502063347 44 0.0 0.0 0.00 0.00 0.00 81
20260502062414 43 299 0.0 1.0 0.00 0.00 0.00 84
20260502060413 40 0.0 0.0 0.00 0.00 0.00 84
20260502055345 39 0.0 0.0 0.00 0.00 0.00 87
20260502054433 37 0.0 0.0 0.00 0.00 0.00 87
20260502053345 35 0.0 0.0 0.00 0.00 0.00 89
20260502052353 33 0.0 0.0 0.00 0.00 0.00 88
20260502051346 33 0.0 0.0 0.00 0.00 0.00 88
20260502050353 33 0.0 0.0 0.00 0.00 0.00 87
20260502045346 33 0.0 0.0 0.00 0.00 0.00 87
20260502044352 33 0.0 0.0 0.00 0.00 0.00 87
20260502043345 33 0.0 0.0 0.00 0.00 0.00 88
20260502042352 33 0.0 0.0 0.00 0.00 0.00 88
20260502041346 33 0.0 0.0 0.00 0.00 0.00 88
20260502040353 33 0.0 0.0 0.00 0.00 0.00 89
20260502035345 33 0.0 0.0 0.00 0.00 0.00 89
20260502034355 33 0.0 0.0 0.00 0.00 0.00 89
20260502033345 33 0.0 0.0 0.00 0.00 0.00 88
20260502032353 33 0.0 0.0 0.00 0.00 0.00 88
20260502031344 33 0.0 0.0 0.00 0.00 0.00 87
20260502030413 33 0.0 0.0 0.00 0.00 0.00 87
20260502025405 33 0.0 0.0 0.00 0.00 0.00 87
20260502024353 34 0.0 0.0 0.00 0.00 0.00 87
20260502023407 34 0.0 0.0 0.00 0.00 0.00 87
20260502022352 34 0.0 0.0 0.00 0.00 0.00 87
20260502021344 34 0.0 0.0 0.00 0.00 0.00 87
20260502020414 34 0.0 0.0 0.00 0.00 0.00 86
20260502015345 34 0.0 0.0 0.00 0.00 0.00 86
20260502014352 35 0.0 0.0 0.00 0.00 0.00 86
20260502013344 35 0.0 0.0 0.00 0.00 0.00 86
20260502012354 35 0.0 0.0 0.00 0.00 0.00 86
20260502011445 35 0.0 0.0 0.00 0.00 0.00 85
20260502010352 36 0.0 0.0 0.00 0.00 0.00 85
20260502005344 36 0.0 0.0 0.00 0.00 0.00 85
20260502004353 36 0.0 0.0 0.00 0.00 0.00 84
20260502003344 36 0.0 0.0 0.00 0.00 0.00 85
20260502002352 36 0.0 0.0 0.00 0.00 0.00 85
20260502001344 37 0.0 0.0 0.00 0.00 0.00 85
20260502000354 37 0.0 0.0 0.00 0.00 0.00 85
20260501235405 37 0.0 0.0 0.00 0.00 0.00 84
20260501234352 37 0.0 0.0 0.00 0.00 0.00 83
20260501233344 38 0.0 0.0 0.00 0.00 0.00 82
20260501232353 38 0.0 0.0 0.00 0.00 0.00 82
20260501231426 38 0.0 0.0 0.00 0.00 0.00 82
20260501230352 39 0.0 0.0 0.00 0.00 0.00 82
20260501225344 39 0.0 0.0 0.00 0.00 0.00 81
20260501224353 39 0.0 0.0 0.00 0.00 0.00 82
20260501223344 39 0.0 0.0 0.00 0.00 0.00 81
20260501222352 39 0.0 0.0 0.00 0.00 0.00 81
20260501221344 40 0.0 0.0 0.00 0.00 0.00 80
20260501220352 40 0.0 0.0 0.00 0.00 0.00 80
20260501215345 41 0.0 0.0 0.00 0.00 0.00 79
20260501214352 41 0.0 0.0 0.00 0.00 0.00 78
20260501213344 41 0.0 0.0 0.00 0.00 0.00 77
20260501212354 42 0.0 0.0 0.00 0.00 0.00 77
20260501211344 42 0.0 0.0 0.00 0.00 0.00 77
20260501210354 42 0.0 0.0 0.00 0.00 0.00 76
20260501205345 43 0.0 0.0 0.00 0.00 0.00 74
20260501204352 44 0.0 0.0 0.00 0.00 0.00 73
20260501203346 44 0.0 0.0 0.00 0.00 0.00 72
20260501202354 45 0.0 0.0 0.00 0.00 0.00 71
20260501201405 45 0.0 0.0 0.00 0.00 0.00 70
20260501200352 46 0.0 0.0 0.00 0.00 0.00 68
20260501195344 47 0.0 0.0 0.00 0.00 0.00 67
20260501194352 47 0.0 0.0 0.00 0.00 0.00 66
20260501193400 48 0.0 0.0 0.00 0.00 0.00 64
20260501192352 49 0.0 0.0 0.00 0.00 0.00 63
20260501191406 50 0.0 0.0 0.00 0.00 0.00 61
20260501190352 51 0.0 0.0 0.00 0.00 0.00 59
20260501185404 52 0.0 0.0 0.00 0.00 0.00 57
20260501184352 53 35 0.0 0.0 0.00 0.00 0.00 55
20260501183346 55 0.0 0.0 0.00 0.00 0.00 51
20260501182352 57 259 0.0 0.0 0.00 0.00 0.00 46
20260501181402 58 36 0.0 0.0 0.00 0.00 0.00 44
20260501180352 58 212 0.0 1.0 0.00 0.00 0.00 44
20260501175345 59 189 0.0 1.0 0.00 0.00 0.00 43
20260501174414 60 99 0.0 0.0 0.00 0.00 0.00 41
20260501173344 60 283 1.0 2.0 0.00 0.00 0.00 41
20260501172353 60 204 0.0 1.0 0.00 0.00 0.00 40
20260501171344 60 299 0.0 1.0 0.00 0.00 0.00 40
20260501170353 61 267 0.0 1.0 0.00 0.00 0.00 40
20260501165347 61 140 1.0 2.0 0.00 0.00 0.00 39
20260501164354 62 204 1.0 2.0 0.00 0.00 0.00 38
20260501163346 62 236 1.0 1.0 0.00 0.00 0.00 37
20260501161344 63 172 1.0 1.0 0.00 0.00 0.00 36
20260501160842 64 199 1.0 2.0 0.00 0.00 0.00 36
20260501155850 64 196 1.0 3.0 0.00 0.00 0.00 34
20260501153848 65 184 1.0 2.0 0.00 0.00 0.00 32
20260501152840 65 272 1.0 2.0 0.00 0.00 0.00 32
20260501151848 65 270 1.0 1.0 0.00 0.00 0.00 31
20260501150900 65 241 1.0 2.0 0.00 0.00 0.00 31